AirNav   ProFlight Series 2 Aviation Headset
 
 1411 users online  

O08 Colusa County Airport
Colusa, California, USA

GOING TO COLUSA?


FAA INFORMATION EFFECTIVE 10 SEPTEMBER 2020

Location

FAA Identifier: O08
Lat/Long: 39-10-44.4000N 121-59-36.0000W
39-10.740000N 121-59.600000W
39.1790000,-121.9933333
(estimated)
Elevation: 49 ft. / 14.9 m (surveyed)
Variation: 14E (2020)
From city: 3 miles S of COLUSA, CA
Time zone: UTC -7 (UTC -8 during Standard Time)
Zip code: 95932

Airport Operations

Airport use: Open to the public
Activation date: 08/1962
Control tower: no
ARTCC: OAKLAND CENTER
FSS: RANCHO MURIETA FLIGHT SERVICE STATION
NOTAMs facility: RIU (NOTAM-D service available)
Attendance: DAWN-DUSK
Pattern altitude: 849 ft. MSL
Wind indicator: lighted
Segmented circle: yes
Lights: ACTVT MIRL RY 13/31 - CTAF.
Beacon: white-green (lighted land airport)
Operates sunset to sunrise.
Taxiway lights: RWY EXIT LGTS ONLY.

Airport Communications

CTAF/UNICOM: 122.8
  • APCH/DEP SVC PRVDD BY OAKLAND ARTCC ON FREQS 132.2/350.3 (RED BLUFF RCAG).

Nearby radio navigation aids

VOR radial/distance  VOR name  Freq  Var
ILAr356/6.7WILLIAMS VORTAC114.4018E
MYVr268/20.1MARYSVILLE VOR/DME110.8016E

Airport Services

Fuel available: 100LL
FUEL AVBL BY CREDIT CARD 24/7
Parking: tiedowns
Airframe service: MAJOR
Powerplant service: MAJOR
Bottled oxygen: NONE
Bulk oxygen: NONE

Runway Information

Runway 13/31

Dimensions: 3034 x 59 ft. / 925 x 18 m
Surface: asphalt, in good condition
Weight bearing capacity: 
Single wheel: 10.0
Runway edge lights: medium intensity
RUNWAY 13  RUNWAY 31
Latitude: 39-10.958353N39-10.521733N
Longitude: 121-59.756495W121-59.444123W
Elevation: 48.8 ft.46.8 ft.
Traffic pattern: leftright
Runway heading: 137 magnetic, 151 true317 magnetic, 331 true
Markings: nonprecision, in good conditionnonprecision, in good condition
Visual slope indicator: 2-light PAPI on left (3.00 degrees glide path)2-light PAPI on left (3.00 degrees glide path)
Runway end identifier lights: nono
Touchdown point: yes, no lightsyes, no lights
Obstructions: none15 ft. road, 450 ft. from runway, 100 ft. left of centerline, 16:1 slope to clear

Airport Ownership and Management from official FAA records

Ownership: Publicly-owned
Owner: COUNTY OF COLUSA
COUNTY COURTHOUSE
COLUSA, CA 95932
Phone 530-458-0580
Manager: GREG HINTON
100 SUNRISE BLVD, SUITE F
COLUSA, CA 95932-3246
Phone (530) 458-0580
COUNTY PUBLIC WORKS DIRECTOR. ARPT MGR 530-701-7359.

Airport Operational Statistics

Aircraft based on the field: 37
Single engine airplanes: 37
    
Aircraft operations: avg 77/day *
77% local general aviation
23% transient general aviation
<1% air taxi
* for 12-month period ending 31 December 2017

Additional Remarks

BE ALERT TO BLDG 120 FT AGL 1000 FT WEST.
BIRDS ON AND IN VICINITY OF AIRPORT
FOR CD CTC OAKLAND ARTCC AT 510-745-3380.

Instrument Procedures

NOTE: All procedures below are presented as PDF files. If you need a reader for these files, you should download the free Adobe Reader.

NOT FOR NAVIGATION. Please procure official charts for flight.
FAA instrument procedures published for use from 10 September 2020 at 0901Z to 08 October 2020 at 0900z.

 
IAPs - Instrument Approach Procedures
RNAV (GPS)-B   download (174KB)
RNAV (GPS) RWY 31   download (238KB)
VOR-A   download (185KB)
NOTE: Special Take-Off Minimums/Departure Procedures apply   download (189KB)

Other nearby airports with instrument procedures:

KMYV - Yuba County Airport (20 nm E)
KWLW - Willows-Glenn County Airport (23 nm NW)
KOVE - Oroville Municipal Airport (25 nm NE)
KBAB - Beale Air Force Base (26 nm E)
O41 - Watts-Woodland Airport (31 nm S)
 
Loc | Ops | Rwys | IFR | FBO | Links
Com | Nav | Svcs | Stats | Notes

Sonoma Jet Center
 
Area around O08 (Colusa County Airport)
 
Road maps at: MapQuest Bing Google
 
Aerial photo
WARNING: Photo may not be current or correct
Aerial photo of O08 (Colusa County Airport)
Do you have a better or more recent aerial photo of Colusa County Airport that you would like to share? If so, please send us your photo.

 
Sectional chart

 
Airport distance calculator
Flying to Colusa County Airport? Find the distance to fly.

From to O08

Sunrise and sunset
Times for 01-Oct-2020
 Local
(UTC-7)
 Zulu
(UTC)
Morning civil twilight06:3913:39
Sunrise07:0614:06
Sunset18:4901:49
Evening civil twilight19:1502:15

Current date and time
Zulu (UTC)  01-Oct-2020 21:25:54
Local (UTC-7)  01-Oct-2020 14:25:54
 
METAR
KMYV 
20nm E 
012053Z AUTO 00000KT 3SM HZ OVC017 32/08 A2995 RMK AO2 SLP146 T03220083 58017
KOVE 
26nm NE 
012053Z AUTO 00000KT 4SM HZ OVC025 33/09 A2997 RMK AO2 SLP149 T03280094 58021
KBAB 
26nm E 
012056Z AUTO 29004KT 4SM HZ CLR 33/09 A2994 RMK AO2 SLP141 T03290090 57020 $
KLHM 
34nm SE 
012055Z AUTO 28003KT 7SM CLR 32/09 A2995 RMK AO1
KSMF 
34nm SE 
012053Z 00000KT 3SM HZ FU OVC020 32/11 A2994 RMK AO2 SLP138 FU OVC020 T03220111 58021
KDWA 
37nm S 
012050Z AUTO 02006KT 4SM HZ CLR 33/08 A2996 RMK AO2
KCIC 
37nm N 
012050Z VRB04KT 3SM FUHZ SKC 33/07 A2997
KEDU 
40nm S 
012100Z AUTO 03007KT 4SM CLR 33/07 A2995 RMK AO1
TAF
KBAB 
26nm E 
011906Z 0119/0301 27007KT 4800 FU FEW000 FEW020 QNH2989INS FU FEW000 BECMG 0203/0204 VRB06KT 6000 FU SKC QNH2993INS BECMG 0218/0219 29009KT 4800 FU SKC QNH2987INS TX35/0123Z TN17/0214Z
NOTAMs
Click for the latest NOTAMs
NOTAMs are issued by the DoD/FAA and will open in a separate window not controlled by AirNav.

 

 
 

FBO, Fuel Providers, and Aircraft Ground Support

  
 Business Name 
 
 Contact 
 
 Services / Description 
 
Fuel Prices
 
Comments
  
 Colusa County Airport
530-458-0580
[email]
Airport management, Aviation fuel, Aircraft parking (ramp or tiedown), Pilots lounge / snooze room, Public telephone, Restrooms

More info about Colusa County Airport
Avfuel
100LL
SS $4.26 
GUARANTEED
 
   2 read write
SS=Self service
Update Fuel Prices
 

Aviation Businesses, Services, and Facilities

  
 Business Name 
 
 Contact 
 
 Services / Description 
 
Distance
 
Comments
  
Sacramento River Aviation 530-434-7240
530-329-4815
[web site]
[email]
Oxygen service, Aircraft parking (ramp or tiedown), Aircraft maintenance, Courtesy transportation, ...
 
Courtesy car  
 
More info about Sacramento River Aviation
on airport  
   write
 

Would you like to see your business listed on this page?

 If your business provides an interesting product or service to pilots, flight crews, aircraft, or users of the Colusa County Airport, you should consider listing it here.  To start the listing process, click on the button below
 
Add a business
 

Other Pages about Colusa County Airport

Update a link
 
Copyright © AirNav, LLC. All rights reserved. Privacy Policy  Contact